Preview of NWS' New Version of Forecast
This preview is not operational and should not be used for support decisions.

Regional Weather Roundup (RWR)

Issued by National Weather Service (NWS)

                            
000
ASUS42 KTBW 211118
RWRFL 
FLORIDA REGIONAL WEATHER ROUNDUP
NATIONAL WEATHER SERVICE TAMPA BAY RUSKIN FL
700 AM EDT SAT SEP 21 2019

NOTE: "FAIR" INDICATES FEW OR NO CLOUDS BELOW 12,000 FEET WITH NO
SIGNIFICANT WEATHER AND/OR OBSTRUCTIONS TO VISIBILITY.

FLZ001>010-012>015-112-114-115-211200-
PANHANDLE FLORIDA
  
CITY           SKY/WX    TMP DP  RH WIND       PRES   REMARKS
PENSACOLA      FAIR      74  70  87 E8        30.16R                  
PENSACOLA NAS  MOCLDY    77  72  84 E13       30.15R                  
MILTON NAS     FAIR      69  64  84 E7        30.19R                  
CRESTVIEW      FAIR      65  62  90 CALM      30.21R                  
PANAMA CITY    FAIR      71  66  84 NE8       30.18R                  
APALACHICOLA   MOCLDY    71  68  90 NE8       30.17R                  

STATION/POSITION SKY/WX   TEMP    WIND        PRES    WAVE   SWELL
                          AIR SEA DIR/SP/G            HT/PER HT/PER
                          (F)     (DEG/KT/KT) (MB)    (FT/S) (FT/S)
30.1N   87.6W              83 84  100/ 17/ 21 1020.4R   5/ 7
29.2N   88.2W              83     110/ 17/ 21 1019.4R
28.8N   86.0W                 85  110/ 19/ 25 1019.9R   7/ 7
PANAMA CITY BEAC           73 83   80/  7/ 10 1022.3R
TOWER C                    78     100/ 20/ 22 1021.6R
28.5N   84.5W              81      80/ 17/ 23 1020.8R   7/ 7

$$
FLZ011-016>038-118-127-128-134-139-239-211200-
NORTH FLORIDA
  
CITY           SKY/WX    TMP DP  RH WIND       PRES   REMARKS
MARIANNA       FAIR      67  66  97 NE6       30.21R                  
TALLAHASSEE    FAIR      71  68  90 E7        30.21R                  
PERRY          FAIR      69  68  97 NE5       30.21R                  
LIVE OAK       CLOUDY    66  66 100 CALM      30.21R                  
CROSS CITY       N/A     68  67  97 N3        30.19R                  
LAKE CITY      FAIR      64  64 100 NE5       30.21R                  
GAINESVILLE    FAIR      69  67  93 N6        30.21R                  
WILLISTON      FAIR      67  65  96 N5        30.18R                  
PALATKA        CLOUDY    63  63 100 CALM      30.19R                  
MAYPORT NAS    MOCLDY    79  66  64 E17       30.19R                  
JACKSONVILLE   MOCLDY    69  65  86 N3        30.19R                  
JAX NAS        FAIR      75  65  70 NE6       30.20R                  
JAX CECIL      PTCLDY    66  66 100 CALM      30.20R                  
FERNANDINA BEA CLOUDY    78  64  60 E15       30.21R                  
ST AUGUSTINE   FAIR      80  32  17 E15       30.19R                  
PALM COAST     PTCLDY    77  66  69 E12       30.17R                  

STATION/POSITION SKY/WX   TEMP    WIND        PRES    WAVE   SWELL
                          AIR SEA DIR/SP/G            HT/PER HT/PER
                          (F)     (DEG/KT/KT) (MB)    (FT/S) (FT/S)
SHELL POINT      NOT AVBL
KEATON BEACH               69      30/  4/  7 1022.7R
CEDAR KEY                  71      40/  7/  9 1021.2R
FERNANDINA                 83 81   70/  4/  9 1023.3R
30.7N   81.3W                 81                N/A     5/13   2/13
MAYPORT                    79 81   60/ 13/ 18 1022.8R
31.4N   80.9W              80 81   80/ 16/ 17 1023.3R   5/ 6   3/ 7
ST AUGUSTINE               80 80   70/ 19/ 20 1022.1R

$$
FLZ040-043>046-052-053-057-058-063-144-211200-
INTERIOR CENTRAL FLORIDA
  
CITY           SKY/WX    TMP DP  RH WIND       PRES   REMARKS
OCALA          FAIR      68  66  93 NE3       30.17R                  
LEESBURG       FAIR      72  63  73 NE7       30.16R                  
SANFORD        FAIR      70  64  81 NE3       30.15R                  
ORLANDO EXEC   FAIR      72  64  76 NE7       30.14R                  
ORLANDO INTL   FAIR      72  64  76 NE7       30.14R                  
KISSIMMEE      FAIR      73  66  78 NE6       30.15R                  
WINTER HAVEN   FAIR      72  64  76 NE8       30.14R                  
LAKELAND       CLEAR     70  64  83 NE7       30.14R                  
BARTOW         FAIR      72  66  83 NE6       30.12S                  
SEBRING        FAIR      70  65  83 NE7       30.11S                  
OKEECHOBEE       N/A     68  64  88 NE5       30.09R                  

$$
FLZ041-047-054-059-064-141-147-211200-
EAST CENTRAL FLORIDA
  
CITY           SKY/WX    TMP DP  RH WIND       PRES   REMARKS
ORMOND BEACH   CLEAR     77  63  61 E12G17    30.16                   
DAYTONA BEACH  FAIR      77  62  59 E12       30.16R                  
DELAND         FAIR      68  63  83 CALM      30.15S                  
NEW SMYRNA BEA PTCLDY    79  57  47 E12       30.16                   
JFK SPACE CTR  MOCLDY    77  70  77 E10       30.13R                  
TITUSVILLE     MOCLDY    81  70  69 E12       30.14                   
MELBOURNE      FAIR      80  66  62 NE14      30.12R                  
VERO BEACH     MOCLDY    80  67  64 E9G21     30.11R                  
FT PIERCE      FAIR      79  66  64 E14G21    30.10R                  
STUART         MOCLDY    81  68  65 E17G28    30.10R                  

STATION/POSITION SKY/WX   TEMP    WIND        PRES    WAVE   SWELL
                          AIR SEA DIR/SP/G            HT/PER HT/PER
                          (F)     (DEG/KT/KT) (MB)    (FT/S) (FT/S)
28.5N   80.2W              80 83   80/ 17/ 23 1020.6R  11/15  10/15
28.9N   78.5W              79 81   50/ 17/ 25 1021.7R  11/15  10/15
TRIDENT PIER               79 82   60/ 10/ 13 1021.6R
28.4N   80.5W                 81                N/A     5/13   2/13
27.5N   80.2W                 82                N/A     8/12   5/12

$$
FLZ050-056-061-142-242-148-248-149-249-151-251-155-255-
160-260-211200-
WEST CENTRAL FLORIDA
  
CITY           SKY/WX    TMP DP  RH WIND       PRES   REMARKS
CRYSTAL RIVER  FAIR      64  64 100 CALM      30.16R                  
INVERNESS      FAIR      66  66 100 CALM      30.16R                  
BROOKSVILLE    FAIR      67  64  90 NE3       30.15R                  
CLEARWATER AIR FAIR      72  63  73 NE5       30.13S                  
ST PETE CLEARW FAIR      76  65  68 NE14      30.13R                  
TAMPA INTL     FAIR      73  64  73 NE6       30.13R                  
TAMPA EXEC     FAIR      68  66  94 CALM      30.14R                  
PLANT CITY     FAIR      70  66  88 NE5       30.15R                  
PETER O KNIGHT CLOUDY    72  68  88 NE9       30.13R                  
ST PETERSBURG  FAIR      77  68  73 E16       30.11R                  
SARASOTA       FAIR      74  66  76 E7        30.09R                  
VENICE         FAIR      72  68  88 NE9       30.10R                  

STATION/POSITION SKY/WX   TEMP    WIND        PRES    WAVE   SWELL
                          AIR SEA DIR/SP/G            HT/PER HT/PER
                          (F)     (DEG/KT/KT) (MB)    (FT/S) (FT/S)
27.3N   84.2W                 84                N/A     8/ 7
CLEARWATER BEACH           73 84   30/  6/ 11 1020.3R
MIDDLE TAMPA BAY           74      80/ 12/ 15 1019.9R
VENICE                     72 84   50/  9/ 12 1019.1R

$$
FLZ066-069-070-075>078-162-262-165-265-211200-
SOUTHWEST FLORIDA AND KEYS
  
CITY           SKY/WX    TMP DP  RH WIND       PRES   REMARKS
PUNTA GORDA    FAIR      70  69  97 NE10      30.10R                  
FT MYERS       FAIR      73  67  81 NE9       30.06R                  
SOUTHWEST INTL FAIR      72  68  87 NE10      30.07R                  
NAPLES         FAIR      76  71  85 NE14      30.04R                  
MARCO ISLAND   FAIR      74  70  87 NE9       30.06R                  
IMMOKALEE      FAIR      72  70  94 NE6       30.05R                  
MARATHON       FAIR      82  75  79 E16       29.98R                  
KEY WEST NAS   TSTM      80  75  84 NE14G25   29.99R                  
KEY WEST INTL  FAIR      80  76  87 NE10G18   29.99R                  

STATION/POSITION SKY/WX   TEMP    WIND        PRES    WAVE   SWELL
                          AIR SEA DIR/SP/G            HT/PER HT/PER
                          (F)     (DEG/KT/KT) (MB)    (FT/S) (FT/S)
NAPLES                     76 83   40/  6/ 11 1017.2R
26.0N   85.6W              83 86   80/ 21/ 27 1016.8
DRY TORTUGAS               83      80/ 25/ 27 1015.4R
SAND KEY                   81      70/ 21/ 25 1013.5
SOMBRERO KEY               83      70/ 20/ 26 1015.1
LONG KEY                   82                 1014.3

$$
FLZ067-068-071>074-168-172>174-211200-
SOUTHEAST FLORIDA 
  
CITY           SKY/WX    TMP DP  RH WIND       PRES   REMARKS
W PALM BEACH   LGT RAIN  80  70  71 NE18G25   30.07R                  
BOCA RATON     PTCLDY    81  72  74 E17       30.05                   
FT LAUDER-EXEC MOCLDY    80  72  76 NE13G21   30.04R                  
FT LAUDERDALE  MOCLDY    80  72  76 E14G22    30.02R                  
POMPANO BEACH  MOCLDY    82  71  69 NE20      30.04R                  
PEMBROKE PINES CLOUDY    81  72  74 NE16      30.05R                  
OPA LOCKA      MOCLDY    80  73  79 NE16      30.03R                  
MIAMI          MOCLDY    81  72  74 NE10      30.02S                  
WEST KENDALL   RAIN      78  75  90 NE8       30.02R                  
HOMESTEAD      FAIR      79  75  89 NE13      30.00R                  

STATION/POSITION SKY/WX   TEMP    WIND        PRES    WAVE   SWELL
                          AIR SEA DIR/SP/G            HT/PER HT/PER
                          (F)     (DEG/KT/KT) (MB)    (FT/S) (FT/S)
VIRGINIA KEY               81 83   30/ 13/ 20 1016.0R
LAKE WORTH                 81 81   50/ 20/ 23 1019.0R
FOWEY ROCKS                81 83   50/ 23/ 25 1016.4R
SETTLEMENT POINT           79      50/ 19/ 21 1018.1R

$$